Location: Vancouver
(49.2500°N, 123.1330°W)
Time: 18:14:14
(UTC-08:00)

AO-27 - Visible Passes

Search period start: 24 February 2017 00:00
Search period end: 06 March 2017 00:00
Orbit: 786 x 797 km, 98.8° (Epoch: 24 February)

Date Brightness Start Highest point End Pass type
(mag) Time Alt. Az. Time Alt. Az. Time Alt. Az.
24 Feb 10.6 02:11:20 10° NE 02:11:49 11° ENE 02:11:49 11° ENE visible
24 Feb 8.6 03:49:04 10° NNE 03:52:34 43° NNE 03:52:34 43° NNE visible
24 Feb 9.2 05:29:49 10° NNW 05:33:09 17° NW 05:33:20 17° WNW visible
25 Feb 9.1 03:20:07 10° NNE 03:23:20 35° NE 03:23:20 35° NE visible
25 Feb 8.7 05:00:07 10° N 05:04:06 27° NW 05:04:06 27° NW visible
26 Feb 9.7 02:51:25 10° NNE 02:54:05 24° ENE 02:54:05 24° ENE visible
26 Feb 8.3 04:30:43 10° N 04:34:51 40° NW 04:34:51 40° NW visible
27 Feb 10.3 02:23:08 10° NE 02:24:50 15° ENE 02:24:50 15° ENE visible
27 Feb 8.1 04:01:30 10° NNE 04:05:36 54° N 04:05:36 54° N visible
27 Feb 9.4 05:42:41 10° NNW 05:45:23 14° NW 05:46:23 14° WNW visible
28 Feb 8.5 03:32:28 10° NNE 03:36:21 47° NE 03:36:21 47° NE visible
28 Feb 8.9 05:12:46 10° N 05:16:45 22° WNW 05:17:08 22° WNW visible
01 Mar 9.2 03:03:39 10° NNE 03:07:07 32° ENE 03:07:07 32° ENE visible
01 Mar 8.3 04:43:16 10° N 04:47:53 36° WNW 04:47:53 36° WNW visible
02 Mar 9.9 02:35:10 10° NE 02:37:52 20° ENE 02:37:52 20° ENE visible
02 Mar 7.8 04:13:59 10° N 04:18:38 56° NW 04:18:38 56° NW visible
02 Mar 9.6 05:55:48 10° NNW 05:57:36 12° NW 05:59:23 10° WNW visible
03 Mar 10.4 02:07:29 10° ENE 02:08:37 12° ENE 02:08:37 12° ENE visible
03 Mar 7.9 03:44:52 10° NNE 03:49:24 66° NNE 03:49:24 66° NNE visible
03 Mar 9.1 05:25:29 10° NNW 05:29:01 19° NW 05:30:10 17° WNW visible
04 Mar 8.7 03:15:57 10° NNE 03:20:09 44° ENE 03:20:09 44° ENE visible
04 Mar 8.5 04:55:51 10° N 05:00:20 29° WNW 05:00:55 29° WNW visible
05 Mar 9.5 02:47:18 10° NE 02:50:55 27° ENE 02:50:55 27° ENE visible
05 Mar 7.9 04:26:29 10° N 04:31:30 48° WNW 04:31:41 47° WNW visible
